Corpus Christi, TX

2:08 AM CDT on August 29, 2016 (GMT -0500)
Corpus Christi International

Weather History for KCRP - March, 2014

Change the Weather History Date:

Wednesday, March 19, 2014

  Actual Average Record
Temperature  
Mean Temperature 69 °F 67 °F  
Max Temperature 80 °F 77 °F 90 °F (1954)
Min Temperature 58 °F 57 °F 30 °F (1988)
Degree Days  
Heating Degree Days 0 2  
Month to date heating degree days 120 61  
Since 1 July heating degree days 1119 861  
Cooling Degree Days 4 4  
Month to date cooling degree days 23 60  
Year to date cooling degree days 100 136  
Growing Degree Days 20 (Base 50)    
Moisture  
Dew Point 61 °F    
Average Humidity 76    
Maximum Humidity 93    
Minimum Humidity 58    
Precipitation  
Precipitation 0.00 in 0.06 in 1.05 in (1905)
Month to date precipitation 1.43 1.19  
Year to date precipitation 2.34 4.66  
Snow  
Snow 0.00 in - - ()
Month to date snowfall 0.0  
Since 1 July snowfall T  
Snow Depth 0.00 in    
Sea Level Pressure  
Sea Level Pressure 29.99 in    
Wind  
Wind Speed 11 mph (East)    
Max Wind Speed 18 mph    
Max Gust Speed 23 mph    
Visibility 10 miles    
Events      
T = Trace of Precipitation, MM = Missing Value Source: NWS Daily Summary

Daily Weather History Graph

Daily Weather History Graph

Search for Another Location

Airport or City:

Trip Planner

Search our weather history database for the weather conditions in past years. The results will help you decide how hot, cold, wet, or windy it might be!

Date:

Astronomy

Mar. 19, 2014 Rise Set
Actual Time 7:35 AM CDT 7:40 PM CDT
Civil Twilight 7:11 AM CDT 8:04 PM CDT
Nautical Twilight 6:44 AM CDT 8:31 PM CDT
Astronomical Twilight 6:17 AM CDT 8:58 PM CDT
Moon 10:42 PM CDT (3/19) 9:17 AM CDT (3/19)
Length of Visible Light 12h 52m
Length of Day
12h 05m
Waning Gibbous, 91% of the Moon is Illuminated
Mar 19
Waning Gibbous
Mar 23
Last Quarter
Mar 30
New
Apr 7
First Quarter
Apr 15
Full

Hourly Weather History & Observations

Time (CDT) Temp. Dew Point Humidity Pressure Visibility Wind Dir Wind Speed Gust Speed Precip Events Conditions
12:51 AM 61.0 °F 57.9 °F 90% 29.88 in 10.0 mi SSE 8.1 mph - N/A   Clear
1:51 AM 59.0 °F 55.9 °F 90% 29.88 in 10.0 mi SE 5.8 mph - N/A   Clear
2:10 AM 60.1 °F 57.0 °F 90% 29.87 in 10.0 mi SE 6.9 mph - N/A   Mostly Cloudy
2:36 AM 59.0 °F 57.0 °F 93% 29.87 in 10.0 mi SE 6.9 mph - N/A   Partly Cloudy
2:51 AM 60.1 °F 57.0 °F 90% 29.87 in 10.0 mi SSE 8.1 mph - N/A   Mostly Cloudy
3:25 AM 61.0 °F 57.9 °F 90% 29.86 in 10.0 mi SSE 10.4 mph - N/A   Scattered Clouds
3:51 AM 61.0 °F 57.9 °F 90% 29.85 in 10.0 mi SSE 10.4 mph - N/A   Partly Cloudy
4:51 AM 61.0 °F 57.9 °F 90% 29.86 in 10.0 mi SSE 8.1 mph - N/A   Partly Cloudy
5:51 AM 61.0 °F 57.9 °F 90% 29.87 in 10.0 mi SE 6.9 mph - N/A   Partly Cloudy
6:51 AM 60.1 °F 57.0 °F 90% 29.90 in 10.0 mi SE 8.1 mph - N/A   Partly Cloudy
7:33 AM 62.1 °F 59.0 °F 90% 29.96 in 10.0 mi NNE 9.2 mph - N/A   Mostly Cloudy
7:51 AM 63.0 °F 60.1 °F 90% 29.97 in 10.0 mi NNE 8.1 mph - N/A   Mostly Cloudy
8:51 AM 64.9 °F 61.0 °F 87% 30.01 in 10.0 mi NNE 10.4 mph - N/A   Mostly Cloudy
9:51 AM 66.9 °F 62.1 °F 84% 30.03 in 10.0 mi NE 13.8 mph - N/A   Overcast
10:19 AM 69.1 °F 63.0 °F 81% 30.04 in 10.0 mi NE 12.7 mph - N/A   Overcast
10:51 AM 70.0 °F 63.0 °F 78% 30.05 in 10.0 mi NE 16.1 mph - N/A   Mostly Cloudy
11:51 AM 73.9 °F 63.0 °F 68% 30.06 in 10.0 mi ENE 13.8 mph - N/A   Mostly Cloudy
12:51 PM 77.0 °F 64.0 °F 64% 30.06 in 10.0 mi East 12.7 mph - N/A   Mostly Cloudy
1:51 PM 78.1 °F 63.0 °F 60% 30.04 in 10.0 mi East 11.5 mph - N/A   Mostly Cloudy
2:51 PM 77.0 °F 63.0 °F 62% 30.03 in 10.0 mi East 12.7 mph - N/A   Mostly Cloudy
3:51 PM 77.0 °F 64.0 °F 64% 30.03 in 10.0 mi East 16.1 mph - N/A   Mostly Cloudy
4:51 PM 73.9 °F 62.1 °F 66% 30.03 in 10.0 mi East 17.3 mph - N/A   Overcast
5:51 PM 73.0 °F 62.1 °F 68% 30.04 in 10.0 mi East 13.8 mph - N/A   Overcast
6:51 PM 71.1 °F 62.1 °F 73% 30.06 in 10.0 mi East 13.8 mph - N/A   Mostly Cloudy
7:51 PM 70.0 °F 63.0 °F 78% 30.08 in 10.0 mi East 10.4 mph - N/A   Overcast
8:51 PM 69.1 °F 64.0 °F 84% 30.11 in 10.0 mi East 9.2 mph - N/A   Overcast
9:51 PM 69.1 °F 64.0 °F 84% 30.12 in 10.0 mi East 8.1 mph - N/A   Overcast
10:51 PM 69.1 °F 64.0 °F 84% 30.13 in 10.0 mi East 5.8 mph - N/A   Mostly Cloudy
11:51 PM 66.9 °F 63.0 °F 87% 30.13 in 10.0 mi East 4.6 mph - N/A   Mostly Cloudy